[[{"header":{"parameterUnit":"m.s-1","parameterCategory":1,"la1":30.2991,"la2":30.254,"lo1":-89.0895,"lo2":-89.0444,"dy":0.0017,"dx":0.0017,"nx":28,"ny":28,"refTime":"2024-05-06T09:00:00:Z","depth":0,"parameterNumber":2,"parameterNumberName":"U-component_of_WINDS"},"data":[0,0,0,0,0,0,0,0,0,0,0,0,0,0,0,0,0,0,0,0,0,0,0,0,0,0,0,0,0,0,0,0,0,0,0,0,0,0,0,0,0,0,0,0,0,0,0,0,0,0,0,0,0,0,0,0,0,0,-2.1459,-2.1459,0,-2.1461,-2.1461,-2.1461,-2.1425,-2.1424,-2.1423,-2.1422,-2.1425,-2.1426,-2.1427,0,0,0,0,0,0,0,0,0,0,0,0,0,-2.1425,-2.1426,-2.1459,-2.1459,-2.1459,-2.1461,-2.1461,-2.1461,-2.1425,-2.1424,-2.1423,-2.1422,-2.1425,-2.1426,-2.1427,0,0,0,0,0,0,0,0,0,0,0,0,0,-2.1434,-2.1426,-2.1459,-2.1441,-2.144,-2.1461,-2.1461,-2.1461,-2.1425,-2.1424,-2.1422,-2.1421,-2.1425,-2.1426,-2.1427,-2.1466,0,0,-2.1432,-2.1433,0,0,0,0,0,0,0,0,-2.1434,-2.1436,-2.1444,-2.1443,-2.1441,-2.1441,-2.145,-2.1463,-2.1426,-2.1431,-2.1422,-2.142,-2.1432,-2.1433,-2.1436,-2.1466,-2.1466,-2.1432,-2.1433,-2.1434,-2.1434,0,0,0,0,0,0,0,-2.1433,-2.1436,-2.146,-2.1444,-2.1442,-2.1433,-2.1433,-2.1452,-2.144,-2.143,-2.1428,-2.1428,-2.1431,-2.1435,-2.1436,-2.1466,-2.1432,-2.1433,-2.1434,-2.1435,-2.1527,-2.1528,0,0,0,0,0,0,-2.1435,-2.1435,-2.146,-2.146,-2.1434,-2.1435,-2.1435,-2.1443,-2.1439,-2.1437,-2.143,-2.1427,-2.1433,-2.1434,-2.1436,-2.148,-2.1434,-2.1435,-2.1436,-2.1525,-2.1527,-2.1529,0,0,0,0,0,0,-2.1434,-2.1437,-2.146,-2.1447,-2.1449,-2.1437,-2.1446,-2.1443,-2.1447,-2.1439,-2.1436,-2.1436,-2.1432,-2.1434,-2.1458,-2.148,-2.1436,-2.1437,-2.1523,-2.1526,-2.1528,-2.1569,0,0,0,0,0,0,-2.1434,-2.1437,-2.1452,-2.1447,-2.145,-2.1482,-2.1448,-2.1444,-2.145,-2.1446,-2.1444,-2.1442,-2.1431,-2.1456,-2.146,-2.1481,-2.1438,-2.1521,-2.1524,-2.1527,-2.1566,-2.1572,-2.1578,0,0,0,0,0,-2.1432,-2.1464,-2.1453,-2.1456,-2.1468,-2.1483,-2.1485,-2.147,-2.1452,-2.1466,-2.146,-2.1443,-2.1477,-2.1459,-2.1463,-2.1485,-2.152,-2.1524,-2.1527,-2.1563,-2.1571,-2.1578,0,0,0,0,0,0,-2.1472,-2.1463,-2.1451,-2.1482,-2.1484,-2.1477,-2.1495,-2.148,-2.1487,-2.1483,-2.1466,-2.1466,-2.1493,-2.1491,-2.1472,-2.1521,-2.1495,-2.1499,-2.1521,-2.1529,-2.1535,-2.1535,-2.1439,0,0,0,0,0,-2.1485,-2.1498,-2.1489,-2.1518,-2.1519,-2.1507,-2.1513,-2.1502,-2.1503,-2.1504,-2.15,-2.1502,-2.1513,-2.1521,-2.1531,-2.1565,-2.1564,-2.1582,-2.1588,-2.1593,-2.1597,-2.1615,-2.1622,-2.154,-2.154,-2.154,0,0,-2.1511,-2.1507,-2.1517,-2.1525,-2.1525,-2.154,-2.1508,-2.1525,-2.1535,-2.1507,-2.1529,-2.1526,-2.1528,-2.1557,-2.157,-2.1556,-2.162,-2.1598,-2.1602,-2.1603,-2.1619,-2.1627,-2.1634,-2.1542,-2.1542,-2.1542,0,0,-2.1565,-2.1564,-2.1586,-2.1587,-2.1587,-2.1578,-2.1584,-2.158,-2.1576,-2.1599,-2.1578,-2.159,-2.1609,-2.1611,-2.1614,-2.1668,-2.1651,-2.1671,-2.1704,-2.1721,-2.1727,-2.1733,-2.1751,-2.1758,-2.1675,-2.1675,-2.1675,0,-2.1597,-2.1617,-2.16,-2.1618,-2.1622,-2.1596,-2.1619,-2.1621,-2.1624,-2.1628,-2.1613,-2.1636,-2.1635,-2.1664,-2.1677,-2.1681,-2.1686,-2.1671,-2.1728,-2.1733,-2.1738,-2.1756,-2.1763,-2.1678,-2.1678,-2.1677,-2.1677,0,-2.1656,-2.167,-2.1689,-2.1692,-2.1698,-2.1719,-2.1705,-2.1713,-2.1701,-2.1694,-2.1717,-2.1715,-2.1723,-2.1729,-2.1718,-2.1756,-2.1748,-2.1731,-2.1704,-2.1749,-2.1765,-2.1771,-2.1681,-2.168,-2.168,-2.1679,0,0,-2.1736,-2.1729,-2.1736,-2.1736,-2.1734,-2.1745,-2.1764,-2.1771,-2.1778,-2.1782,-2.1797,-2.1813,-2.1797,-2.1801,-2.1789,-2.1804,-2.1846,-2.1785,-2.1785,-2.1796,-2.1887,-2.19,-2.1908,-2.1835,-2.1836,-2.1837,-2.1887,0,-2.1788,-2.1819,-2.1804,-2.1837,-2.185,-2.1825,-2.1841,-2.1842,-2.1836,-2.1845,-2.1839,-2.1851,-2.1829,-2.183,-2.1844,-2.1838,-2.1864,-2.1834,-2.1849,-2.1849,-2.1849,-2.1916,-2.193,-2.1977,-2.1893,-2.1894,-2.1895,0,-2.1853,-2.1858,-2.1892,-2.1886,-2.1891,-2.1906,-2.1911,-2.192,-2.192,-2.1915,-2.1918,-2.1903,-2.1921,-2.1895,-2.1919,-2.1899,-2.1904,-2.1902,-2.1903,-2.1904,-2.1875,-2.1918,-2.1992,-2.1999,-2.1905,-2.1904,-2.1903,0,-2.1907,-2.1922,-2.1944,-2.1946,-2.194,-2.195,-2.1948,-2.1947,-2.1952,-2.1956,-2.1959,-2.1966,-2.197,-2.1976,-2.1963,-2.1945,-2.1989,-2.1962,-2.1985,-2.1985,-2.1995,-2.1995,-2.207,-2.1999,-2.1999,-2.1999,-2.1999,0,-2.1967,-2.1989,-2.1968,-2.1982,-2.2005,-2.1987,-2.2011,-2.2007,-2.2005,-2.2017,-2.1996,-2.2008,-2.1991,-2.2001,-2.1991,-2.2012,-2.2014,-2.201,-2.2007,-2.2012,-2.2012,-2.2015,-2.2011,-2.2001,-2.2,-2.2,-2.1999,0,-2.2032,-2.2019,-2.2041,-2.2033,-2.2031,-2.2049,-2.2042,-2.2054,-2.2046,-2.2062,-2.2064,-2.2052,-2.2063,-2.205,-2.2061,-2.2054,-2.2082,-2.2075,-2.2082,-2.208,-2.2103,-2.2101,-2.2183,-2.2192,-2.2116,-2.2116,-2.2117,0,-2.207,-2.2086,-2.2079,-2.2085,-2.2084,-2.2095,-2.21,-2.2083,-2.2089,-2.2089,-2.2101,-2.211,-2.2116,-2.2134,-2.2126,-2.2134,-2.2126,-2.2154,-2.2127,-2.2131,-2.2126,-2.2125,-2.2126,-2.216,-2.2161,-2.2161,-2.2162,0,-2.214,-2.2133,-2.214,-2.2145,-2.2151,-2.2154,-2.2156,-2.2162,-2.2145,-2.2152,-2.2162,-2.2167,-2.2177,-2.2186,-2.2191,-2.2189,-2.2172,-2.217,-2.2176,-2.2181,-2.2184,-2.2182,-2.2097,-2.2169,-2.2168,-2.2167,-2.2167,-2.2167,-2.2193,-2.2205,-2.2202,-2.221,-2.221,-2.2211,-2.2222,-2.2215,-2.2223,-2.2229,-2.2218,-2.2231,-2.223,-2.2234,-2.2234,-2.2244,-2.2232,-2.224,-2.2242,-2.2245,-2.2248,-2.2183,-2.2245,-2.2245,-2.2245,-2.2244,-2.2244,0,-2.2261,-2.2257,-2.2265,-2.2268,-2.2274,-2.2257,-2.2258,-2.2265,-2.2276,-2.2276,-2.2282,-2.2293,-2.2301,-2.2294,-2.2301,-2.231,-2.2302,-2.2312,-2.2311,-2.2311,-2.2259,-2.2253,-2.2318,-2.2318,-2.2318,-2.2318,-2.2318,-2.2318,-2.2298,-2.2317,-2.2309,-2.2328,-2.2325,-2.2336,-2.2338,-2.234,-2.2339,-2.2352,-2.2359,-2.2353,-2.235,-2.2356,-2.2362,-2.236,-2.2363,-2.2376,-2.2371,-2.2322,-2.2315,-2.2308,-2.2302,-2.2377,-2.2377,-2.2422,-2.2422,-2.2423]},{"header":{"parameterUnit":"m.s-1","parameterCategory":1,"la1":30.2991,"la2":30.254,"lo1":-89.0895,"lo2":-89.0444,"dy":0.0017,"dx":0.0017,"nx":28,"ny":28,"refTime":"2024-05-06T09:00:00:Z","depth":0,"parameterNumber":3,"parameterNumberName":"V-component_of_WINDS"},"data":[0,0,0,0,0,0,0,0,0,0,0,0,0,0,0,0,0,0,0,0,0,0,0,0,0,0,0,0,0,0,0,0,0,0,0,0,0,0,0,0,0,0,0,0,0,0,0,0,0,0,0,0,0,0,0,0,0,0,2.9263,2.9264,0,2.934,2.9341,2.9342,2.9328,2.9326,2.9325,2.9324,2.9403,2.9406,2.9409,0,0,0,0,0,0,0,0,0,0,0,0,0,2.9103,2.9106,2.9263,2.9264,2.9265,2.934,2.9341,2.9342,2.9328,2.9326,2.9325,2.9323,2.9402,2.9406,2.941,0,0,0,0,0,0,0,0,0,0,0,0,0,2.9175,2.9107,2.9263,2.9267,2.9268,2.934,2.9341,2.9342,2.9328,2.9326,2.9324,2.9322,2.94,2.9405,2.941,2.9483,0,0,2.9426,2.9428,0,0,0,0,0,0,0,0,2.9171,2.9181,2.9265,2.9267,2.9268,2.9322,2.9314,2.9389,2.9329,2.9305,2.9324,2.9321,2.9378,2.9384,2.9403,2.9486,2.949,2.9426,2.9429,2.9431,2.9433,0,0,0,0,0,0,0,2.9166,2.9178,2.9293,2.9266,2.9268,2.9265,2.9273,2.9328,2.9352,2.9307,2.9306,2.9316,2.9378,2.9398,2.9405,2.9491,2.9426,2.943,2.9434,2.9436,2.9637,2.9639,0,0,0,0,0,0,2.916,2.9174,2.9291,2.9296,2.9214,2.9269,2.9278,2.9307,2.9351,2.9356,2.9317,2.9315,2.9391,2.9399,2.9408,2.9495,2.9431,2.9436,2.9439,2.9635,2.9637,2.964,0,0,0,0,0,0,2.9157,2.9171,2.9288,2.9235,2.9249,2.9274,2.9307,2.931,2.933,2.9359,2.9363,2.9334,2.939,2.9401,2.9464,2.9498,2.9438,2.9443,2.9632,2.9635,2.9639,2.9671,0,0,0,0,0,0,2.9152,2.9169,2.9197,2.9235,2.9252,2.9343,2.9309,2.9313,2.9339,2.9336,2.9376,2.938,2.9389,2.9457,2.9469,2.9504,2.9447,2.9629,2.9633,2.9638,2.9667,2.9675,2.9682,0,0,0,0,0,2.9146,2.9204,2.9199,2.9213,2.9288,2.9345,2.9355,2.9363,2.9342,2.937,2.9388,2.9379,2.9492,2.9463,2.9477,2.9514,2.9627,2.9632,2.9637,2.9664,2.9674,2.9682,0,0,0,0,0,0,2.9169,2.9209,2.9204,2.9275,2.9307,2.9343,2.9379,2.9374,2.9412,2.9408,2.9417,2.9426,2.949,2.9508,2.9475,2.9586,2.9556,2.9565,2.9572,2.9581,2.9589,2.9583,2.9451,0,0,0,0,0,2.9183,2.9226,2.9258,2.9318,2.9334,2.9354,2.9379,2.9383,2.9416,2.9429,2.9452,2.9485,2.9528,2.9556,2.9597,2.967,2.9678,2.9702,2.9709,2.9715,2.9722,2.9762,2.9773,2.9657,2.9657,2.9657,0,0,2.9211,2.9238,2.9265,2.9323,2.9348,2.9393,2.9365,2.9413,2.9446,2.9437,2.9498,2.9516,2.9553,2.9621,2.9652,2.9638,2.9756,2.9722,2.9727,2.973,2.9768,2.9779,2.9789,2.966,2.966,2.9659,0,0,2.9285,2.931,2.9362,2.9387,2.9425,2.9438,2.945,2.9487,2.9498,2.956,2.9553,2.9592,2.9666,2.9692,2.9715,2.9798,2.9791,2.9812,2.9851,2.9889,2.9898,2.9906,2.9936,2.9946,2.9818,2.9818,2.9819,0,2.9315,2.9382,2.9389,2.9438,2.9464,2.9457,2.951,2.9534,2.9584,2.9601,2.9585,2.9677,2.9701,2.9775,2.9795,2.9814,2.9829,2.9807,2.9896,2.9905,2.9912,2.994,2.9951,2.9821,2.982,2.982,2.982,0,2.9416,2.9463,2.95,2.9548,2.9578,2.9629,2.9644,2.9673,2.9674,2.9689,2.9751,2.978,2.9826,2.9844,2.9846,2.9918,2.9908,2.9894,2.9864,2.9925,2.9952,2.9963,2.9824,2.9823,2.9822,2.9822,0,0,2.9507,2.9558,2.9572,2.9593,2.9634,2.967,2.972,2.9765,2.979,2.9825,2.9866,2.9929,2.9915,2.9942,2.9946,2.998,3.0043,2.9961,2.9962,2.9975,3.0124,3.0135,3.0147,3.0038,3.0041,3.0042,3.0121,0,2.9584,2.9673,2.9681,2.976,2.9803,2.9796,2.984,2.987,2.9884,2.9922,2.9938,2.9982,2.9961,2.9977,3.001,3.0028,3.0073,3.0023,3.0077,3.0079,3.0068,3.0161,3.0172,3.0245,3.0132,3.0133,3.0135,0,2.9687,2.9723,2.9807,2.9841,2.986,2.9899,2.994,2.9977,3.0011,3.0019,3.0048,3.0047,3.0098,3.0067,3.0137,3.0103,3.0126,3.0138,3.0141,3.0146,3.011,3.0168,3.0269,3.028,3.0151,3.015,3.0149,0,2.9744,2.9814,2.9873,2.9892,2.9934,2.9961,2.998,3.0011,3.0038,3.0074,3.0091,3.0133,3.0156,3.0189,3.02,3.0176,3.027,3.0239,3.0278,3.0278,3.0298,3.0296,3.0403,3.0313,3.0313,3.0313,3.0312,0,2.9829,2.988,2.9899,2.9936,2.9992,3.0001,3.0057,3.0074,3.0102,3.0142,3.0139,3.0176,3.0188,3.0227,3.0236,3.0293,3.0303,3.0311,3.0313,3.0311,3.031,3.0326,3.0321,3.0315,3.0315,3.0314,3.0314,0,2.9903,2.9918,2.9981,3.0015,3.0025,3.0066,3.0095,3.013,3.0143,3.0193,3.0205,3.0226,3.0272,3.0286,3.0341,3.0347,3.0414,3.0411,3.0402,3.0402,3.044,3.0436,3.0561,3.0577,3.0476,3.0477,3.0478,0,2.9956,2.9995,3.0033,3.0059,3.0079,3.0121,3.0148,3.0158,3.0186,3.0227,3.0256,3.0301,3.0338,3.0411,3.0432,3.0474,3.0472,3.0512,3.0478,3.0475,3.0472,3.0469,3.0473,3.0519,3.052,3.0521,3.0522,0,3.0049,3.0054,3.0093,3.0134,3.0166,3.02,3.0231,3.0253,3.0267,3.0299,3.0345,3.0374,3.043,3.0474,3.0517,3.0536,3.0531,3.0532,3.0543,3.0542,3.0535,3.0539,3.042,3.0529,3.0528,3.0528,3.0528,3.0527,3.0114,3.0148,3.018,3.0223,3.0248,3.0278,3.0312,3.033,3.0369,3.0415,3.0418,3.0469,3.05,3.0557,3.0578,3.0618,3.0606,3.0622,3.0626,3.063,3.0633,3.0529,3.0626,3.0625,3.0625,3.0625,3.0625,0,3.0207,3.0227,3.0266,3.0311,3.0345,3.0337,3.0372,3.04,3.0444,3.0475,3.0511,3.0564,3.0607,3.0631,3.0674,3.07,3.0699,3.0711,3.0709,3.0714,3.0641,3.0627,3.0711,3.0711,3.0711,3.0711,3.0711,3.0711,3.0259,3.0316,3.0325,3.0394,3.0414,3.0463,3.0484,3.0511,3.0535,3.0594,3.063,3.0645,3.0673,3.0718,3.0757,3.0763,3.0778,3.0792,3.0796,3.0728,3.0719,3.0711,3.0697,3.0795,3.0795,3.0866,3.0866,3.0867]}]]